FENGYUN 1C DEB, 36230

Orbit data source: Space-Track

FENGYUN 1C DEB, 36230 is space debris in SSO originally from a launch on Mon, 10 May 1999 UTC launched from the Taiyaun Space Center, China (TSC). Fengyun 1C debris stems from the Chinese weather satellite Fengyun-1C, which was intentionally destroyed by a Chinese anti-satellite missile in 2007. This event dramatically increased the amount of space debris, with thousands of trackable fragments posing hazards to satellites and human spaceflight. The Fengyun 1C debris cloud has become a focal point in discussions about space sustainability and the need for international regulations to prevent the creation of new debris.

Loading next visibility...
Identifier
36230, 1999-025DVF
Orbit
SSO
Country
Flag of CNCN / PRC
Related business
Manufacturer
Unknown
Mission
Spacecraft
Bus & Motor
Unknown
Mass
Unknown
Launch date (UTC)
1999-05-10 (27 years ago)
Launch vehicle
Unknown
Launch site
Taiyaun Space Center, China (TSC)
Object type
Payload
Rocket body
Debris
Shape & HBR
Unknown shape, 0.1 m
Radar Cross Section
Small (<0.1 m²)

Expand to show TLE details & history
Last TLE update: 5 days ago

TLE from 5 days ago
0 FENGYUN 1C DEB
1 36230U 99025DVF 26205.00539464  .00001709  00000-0  15377-2 0  9997
2 36230  99.5169 284.9507 0209950 277.7506  79.9853 13.76049849649561
Epoch: 2026-07-24T00:07Z
TLE epoch observation values (Epoch: 2026-07-24T00:07:46.096Z)
Latitude
-0.00001°
Longitude
-18.7296°
Altitude
957.059 km
Speed
7.385 km/s
True Right ascension
18h 59m 48s
True Declination
0° 00' 00"
Sunlit
Object was in full shadow at epoch
Visualization orbit readout
Latitude
Unknown
Longitude
Unknown
Altitude
Unknown
Speed
Unknown
Apparent Right ascension
Unknown
Apparent Declination
Unknown
Sunlit
N/A
Visualization observer readout
Local Sidereal Time
03:43:01
Azimuth
Unknown
Elevation
Unknown
Doppler factor
Unknown
Orbital elements
Apogee altitude
1,129.569 km
Perigee altitude
820.803 km
Semi-major axis
7,353.323 km
Eccentricity
0.021
Inclination
99.5169°
RAAN
284.9507°
Arg. of periapsis
277.7506°
True anomaly
82.36467°
Mean anomaly
79.9853°
Eccentric anomaly
81.17398°
Mean motion
3.44205 °/min
Orbital period
104.59 mins
BSTAR
0.0015377
Loading maneuver chart data...
Computing Atmospheric mass density...
Loading historical data...
Loading historical data...
Loading historical data...
Loading historical data...
Loading historical data...
Loading historical data...
Loading historical data...

Documentation

Showing up to 5 results
|